weather.gov     
National Weather Service

Regional Weather Roundup
NWS Homepage
This page is being discontinued on March 12, 2014.
The same data is available at this site. Please update your bookmarks.
Thank you, and we apologize for the inconvenience.
Please send an email to SR-SRH.Webmaster@noaa.gov with any concerns.


Current Version
Previous Version:    01  02  03  04  05  06  07  08  09  10  11  12  13  14  15  16  17  18  19  20  21  22  23  24  25  26  27  28  29  30  
   31  32  33  34  35  36  37  38  39  40  41  42  43  44  45  46  47  48  49  50  51  52  53  
[Printable]
570
ASUS41 KGYX 231010
RWRGYX
WEATHER ROUNDUP FOR MAINE AND NEW HAMPSHIRE
NATIONAL WEATHER SERVICE GRAY ME
500 AM EST SUN NOV 23 2014

MEZ002-005-006-010-012-015-018-020-021-024-026-027-029-231100-
MAINE

CITY           SKY/WX    TMP DP  RH WIND       PRES   REMARKS
PORTLAND       CLOUDY    41  26  55 SW10      29.99S
SANFORD        CLOUDY    36  19  51 SE3       30.01F
BAR HARBOR     CLOUDY    39  28  65 SW3       29.95R
WISCASSET      CLOUDY    40  26  57 CALM      29.99R
ROCKLAND       CLOUDY    39  27  60 W8        29.97R
FRYEBURG       CLOUDY    41  36  82 VRB6      29.96S
LEWISTONAUBURN CLOUDY    34  25  69 N3        29.96S
AUGUSTA        CLOUDY    35  21  56 S3        29.96R
WATERVILLE     CLOUDY    36  19  51 S5        29.93S
BANGOR         MOCLDY    34  21  59 S5        29.94R
GREENVILLE       N/A     38  31  76 N5        29.86R
MILLINOCKET    CLOUDY    36  23  59 CALM      29.90S
HOULTON        CLOUDY    32  22  66 S5        29.87R
PRESQUE ISLE   CLOUDY    36  27  69 SW8       29.84S
FRENCHVILLE    CLOUDY    30  27  88 SW9       29.80R
CARIBOU        CLOUDY    33  27  78 SW6       29.83R
$$

NHZ002-005-008-009-011-012-014-231100-
NEW HAMPSHIRE

CITY           SKY/WX    TMP DP  RH WIND       PRES   REMARKS
PORTSMOUTH     LGT RAIN  41  30  65 SW9       30.02S
ROCHESTER      LGT RAIN  37  29  72 CALM      30.01S
NASHUA         MOCLDY    41  29  62 CALM      30.06F
MANCHESTER     CLOUDY    40  28  62 S8        30.03S
CONCORD        MOCLDY    34  30  85 S3        30.03S
LACONIA        CLOUDY    39  34  81 SW8       29.99S
PLYMOUTH       CLOUDY    35  35 100 CALM      30.00S FOG
BERLIN         LGT RAIN  36  31  82 W5        29.95R
WHITEFIELD     CLOUDY    37  35  92 W3        29.97R
JAFFREY        MOCLDY    37  28  70 S10       30.04F
LEBANON        CLOUDY    40  35  83 S8        30.01S
MT WASHINGTON  FRZ DRZL  25  25 100 W49G56      N/A  VSB 0   WCI   4
$$

VTZ005-007-008-231100-
VERMONT

CITY           SKY/WX    TMP DP  RH WIND       PRES   REMARKS
ST JOHNSBURY     N/A     38  35  89 MISG      29.97R
MONTPELIER     CLOUDY    42  36  79 SW6       30.01R
BURLINGTON     CLOUDY    41  35  79 S14G24    29.99R
$$

MAZ007-012-024-CTZ003-RIZ002-NYZ038-NYZ072-231100-
SOUTHERN NEW ENGLAND AND NY

CITY           SKY/WX    TMP DP  RH WIND       PRES   REMARKS
BOSTON         CLOUDY    44  26  49 SW12      30.08S
WORCESTER      MOCLDY    36  27  69 W13       30.05S
NANTUCKET      CLOUDY    52  41  66 W18G29    30.15S
PROVIDENCE     CLOUDY    44  25  47 SW9       30.13S
HARTFORD       CLOUDY    44  20  38 S14       30.10F
ALBANY         LGT RAIN  39  30  70 S8        30.08S
NEW YORK CITY  CLOUDY    44  22  41 SW9G20    30.18R
$$

ANZ081-ANZ082-ANZ150-NHZ014-MEZ023>029-231100-
COASTAL MARINE OBSERVATIONS

STATION/POSITION TIME  TEMP    WIND        PRES    WAVE
                       AIR SEA DIR/SP/G            HT/PER
                 (UTC) (F)     (DEG/KT/KT) (MB)    (FT/S)
MOUNT DESERT ROC 1000   47                 1014.4R
MATINICUS ROCK   1000          270/ 29/ 31 1014.2R
PORTLAND WX BUOY 0950   44 50  230/ 17/ 19 1015.6R   5/ 7
WELLS            0900   39 43  240/  4/  6 1015.8R
ISLE OF SHOALS   1000   45     240/ 18/ 20 1015.9F
JEFFREYS LEDGE   0921      51                N/A     6/ 6
CASHES LEDGE BUO 0950   48 51  250/ 27/ 31 1015.3R  10/ 8
$$

.............KEY..............
   WCI - WIND CHILL
   TC  - TEMPERATURE IN CELSIUS
   VSB - VISIBILITY IN MILES
   HX  - HEAT INDEX
   FAIR- INDICATES FEW OR NO CLOUDS BELOW 12,000 FT, WITH NO
         SIGNIFICANT WEATHER AND/OR OBSTRUCTIONS TO VISIBILITY.






U.S. Dept. of Commerce
NOAA National Weather Service
1325 East West Highway
Silver Spring, MD 20910
E-mail: w-nws.webmaster@noaa.gov
Page last modified: May 16, 2007
NATIONAL WEATHER SERVICE: for Safety, for Work, for Fun - FOR LIFE